Location: Stockholm
(59.3330°N, 18.0500°E)
Time: 11:17:43
(UTC+01:00)

FENGYUN 1C DEB - Pass Details

Date: 07 December 2023
Orbit: 841 x 915 km, 98.8° (Epoch: 21 February)

Event Time Altitude Azimuth Distance (km) Brightness Sun altitude
Exits shadow 20:41:14 14° 339° (NNW) 2,209 ? -41.8°
Drops below altitude 10° 20:41:55 10° 340° (NNW) 2,477 ? -41.9°
Sets 20:44:18 0° 342° (NNW) 3,421 ? -42.2°
